Погода в Жлобине

Погода в Жлобине : погода сейчас, прогноз погоды и архив. Всё, что Вы хотите узнать о погоде в Жлобине!

Хотите узнать прогноз погоды в Жлобине? Тогда Вам сюда: Погода в Жлобине

Поиск расширенной информации на нашем сайте:

Другие новости

Новости СМИ2

Главная страница сайта

Новости сайта

03.07.2017

Напоминаем, что на нашем специализированном сайте Метеоцентр.Азия вы можете получить высокодетализированные автоматические прогнозы погоды по пунктам России, СНГ и мира в авиационном формате (включающие направление и скорость ветра, видимость, явления погоды, количество и форму облачности, нижнюю и верхнюю границу облачности).


Погода в Жлобине - сегодня

Время (UTC), дата Ветер
(°,м/с) 
Видим.   Явления Облачность Т
(°С)
Тd
(°С)
f(%) Тe
(°С)
Pmin
(гПа)
dP
(гПа)
Po
(мм)
O2
(г/м3)
Тmin Tmax R s Состояние
почвы
00 13.07.18 000 (С) //  15000 м    3/0 средняя 
[Ac trans]
+19.3 +15.8 80 +30  1011.5  -1.1  746  277           
06 13.07.18 320 (СЗ) //  25000 м  в посл. час гроза{ливн. осадки}  9/6 600 м кучево-дожд., средняя 
[Cb cap|Ac trans]
+19.8 +17.5 87 +33  1011.4  0.5  746  276  +17.9       
09 13.07.18 070 (В) //  25000 м  {ливн. осадки}  8/3 600 м кучево-дожд., средняя, верхняя 
[Cb cap|Ac trans|Cc]
+21.7 +18 79 +36  1010.6  -0.6  746  274         
12 13.07.18 270 (З) //  30000 м  {ливн. осадки}  6/3 600 м кучево-дожд. 
[Cb cap]
+24.3 +17.7 67 +38  1009.3  -1.2  745  272           
15 13.07.18 270 (З) //  20000 м  в посл. час ливневой дождь  8/4 600 м кучево-дожд., средняя 
[Cb cap|Ac trans]
+24.4 +16.6 62 +36  1008.2  -1  744  272         
18 13.07.18 270 (З) //  20000 м  {гроза, ливн. осадки}  8/4 600 м кучево-дожд., средняя 
[Cb cap|Ac trans]
+18.5 +16 85 +29  1009.2  0.5  744  277    +26     
21 13.07.18 270 (З) //  18000 м    6/4 600 м кучево-дожд. 
[Cb cap]
+17.4 +15.7 90 +28  1009.5  0.3  745  279           
00 14.07.18 270 (З) //  14000 м    3/3 1000 м 
[Sc]
+15.4 +14.7 96 +24  1008.9  -0.6  744  281           
06 14.07.18 320 (СЗ) //  20000 м    8/3 600 м кучево-дожд., средняя 
[Cb cap|Ac lent]
+19.9 +16.6 81 +32  1008.2  -0.6  744  276  +14.4         
09 14.07.18 270 (З) //  27000 м    8/4 1000 м средняя, верхняя 
[Cu med, cong|Ac As|Cs]
+23 +13.3 54 +29  1008  -0.1  744  274           
12 14.07.18 270 (З) //  30000 м  в посл. час ливневой дождь  8/3 600 м кучево-дожд., средняя, верхняя 
[Cb cap|Ac trans|Cs]
+22.6 +13.4 56 +29  1007.2  -0.8  743  274      0.0     
15 14.07.18 230 (ЮЗ) //  28000 м  {ливн. осадки}  8/1 600 м кучево-дожд., средняя 
[Cb cap|Ac trans]
+24.3 +14.6 55 +33  1006.3  -0.8  743  272      0.0     
18 14.07.18 270 (З) //  28000 м  {ливн. осадки}  8/4 600 м кучево-дожд., средняя 
[Cb cap|Ac lent]
+18.7 +11.4 62 +22  1007.3  0.7  743  278    +24.4  0.0     
21 14.07.18 320 (СЗ) //  25000 м    5/3 1000 м средняя 
[Sc|Ac trans]
+16.3 +13.6 84 +23  1007.7  0.3  743  280           
00 15.07.18 290 (З) //  14000 м    5/0 средняя, верхняя 
[Ac lent|Ci sp]
+14.5 +13.6 94 +21  1007.2  -0.6  743  281           
06 15.07.18 020 (С) //  25000 м    10/0 верхняя 
[Cc]
+18.7 +16.5 87 +30  1007.1  743  277  +14         
09 15.07.18 000 (С) //  30000 м    8/5 1000 м верхняя 
[Cu med, cong|Ci fib]
+23.9 +16.2 62 +35  1006.8  743  272           
12 15.07.18 020 (С) //  30000 м  в посл. час ливневой дождь{гроза}  8/5 600 м средняя, верхняя 
[Cu med, cong|Ac trans|Ci fib]
+22.1 +16.7 71 +34  1006.3  -0.6  743  273         
15 15.07.18 000 (С) //  13000 м  слаб. ливневой дождь{гроза}  10/8 600 м кучево-дожд., средняя 
[Cb cap|Ac und]
+20.3 +17.9 86 +35  1006.3  -0.1  742  274      12     
18 15.07.18 360 (С) //  30000 м  {гроза, ливн. осадки}  9/3 600 м кучево-дожд., средняя, верхняя 
[Cb cap|Ac As|Ci fib]
+18.8 +16.4 86 +30  1006.6  0.2  743  276    +24  12     
21 15.07.18 000 (С) //  12000 м    3/3 1000 м 
[Sc]
+16.8 +16.1 96 +28  1007.1  0.4  743  278           
00 16.07.18 000 (С) //  7000 м  дымка  3/3 1000 м 
[Sc]
+16.2 +15.7 97 +26  1007.2  0.1  743  279           
06 16.07.18 050 (СВ) //  20000 м  {морось}  10/6 100 м 
[St]
+18.3 +17.1 93 +31  1007  -0.1  743  277  +16.2    0.1     
09 16.07.18 050 (СВ) //  20000 м  слаб. ливневой дождь  10/6 300 м 
[Frnb]
+19.7 +17.6 88 +34  1006.9  743  275      0.0     
12 16.07.18 140 (ЮВ) //  3400 м  ливневой дождь  10/10 300 м кучево-дожд. 
[Cb cap]
+17.7 +16.9 95 +30  1006.3  -0.7  742  277      19     
Время (UTC), дата Ветер
(°,м/с) 
Видим.   Явления Облачность Т
(°С)
Тd
(°С)
f(%) Тe
(°С)
Pmin
(гПа)
dP
(гПа)
Po
(мм)
O2
(г/м3)
Тmin Tmax R s Состояние
почвы

Для получения пояснительной информации подведите курсор к названию столбца.

ПОГОДА в Жлобине - архив

Всё, что Вы хотите узнать о погоде в Жлобине - удобно и подробно!

Выберите нужную дату (начиная с 1 января 2015* года) и нажмите кнопку "Найти".
Будут отображены архивные сводки погоды по пункту Жлобин, начиная с указанной даты.


Отображать данные в формате CSV (для использования в таблицах Excel)


Внимание! Наш архив погоды предназначен исключительно для личного некоммерческого использования в познавательных целях. Если Вам необходимы официальные справки о состоянии погоды (для производственных, юридических, коммерческих и т.п. целей), обращайтесь в органы Росгидромета.

*Примечание: данная дата относится к архиву по метеостанциям СССР (Россия, СНГ, Балтия).
Архив по метеостанциям Зарубежной Европы и Азии (кроме Китая) хранится 10 дней, по другим регионам земного шара (Китай, Африка, Америка, Австралия, Океания) - 1 день.

Жлобин - район местоположения метеостанции


Название, широта, долгота, высота метеостанции:
Жлобин 52.9°ш. 30°д. 142 м над ур. моря [Беларусь]

Дополнительная информация

В oтличие oт бoльшинства пoгoдных сайтoв мы публикуем пoдрoбную метеoинфoрмацию в детальнoм прoфессиoнальнoм фoрмате.

Характеристики температуры и влажнoсти вoздуха измеряются на высoте 2 м в тени вдали oт зданий и деревьев.
Скoрoсть ветра измеряется на высoте 10 м (на урoвне рoста челoвека скoрoсть ветра ниже в 1.5-2 раза). Если метеoстанция нахoдится в гoрoде или в лесу, тo скoрoсть ветра занижена на 2-4 м/с пo сравнению с oткрытым местoм. Скoрoсть ветра над акватoриями крупных рек и oзёр, а также на вершинах хoлмoв на 2-5 м/с выше, чем в oбычных услoвиях.
Атмoсфернoе давление в разных тoчках местнoсти мoжет значительнo oтличаться oт давления на метеoстанции, в зависимoсти oт услoвий рельефа (при пoдъёме на 10 м давление пoнижается примернo на 1 мм рт.ст.).